{"data":{"norad_id":58482,"epoch":"2026-09-20T15:51:52.082208Z","epoch_age_seconds":132788,"freshness":"FRESH","line1":"1 58482U 23186K   26263.66101947  .00012795  00000+0  47349-3 0  9993","line2":"2 58482  43.0008  42.5972 0001379 257.8728 102.1969 15.27592263155711","mean_motion":15.27592263,"eccentricity":0.0001379,"inclination_deg":43.0008,"raan_deg":42.5972,"arg_perigee_deg":257.8728,"mean_anomaly_deg":102.1969,"bstar":0.00047349,"rev_number":15571,"period_min":94.265991971707,"perigee_km":482.06622395269,"apogee_km":483.95852895072,"semimajor_km":6861.1493764517,"source":"CELESTRAK","updated_at":"2026-09-21T09:00:33.881888Z"}}